Location: ???????
(55.4362°N, 38.1183°E)
Time: 18:28:49
(UTC+00:00)

Cosmos 1606 - Pass Details

Date: 17 June 2021
Orbit: 501 x 527 km, 82.5° (Epoch: 29 July)

Event Time Altitude Azimuth Distance (km) Brightness Sun altitude
Rises 22:14:01 0° 353° (N) 2,669 8.0 -10.6°
Reaches altitude 10° 22:16:22 10° 5° (N) 1,771 7.0 -10.5°
Maximum altitude 22:19:51 31° 68° (ENE) 944 4.4 -10.4°
Drops below altitude 10° 22:23:16 10° 132° (SE) 1,744 5.1 -10.3°
Enters shadow 22:24:59 - 141° (SE) 2,394 5.7 -10.2°
